| time (UTC) | temp F | wind direction | speed MPH | gust MPH | rain 1hr in | rain 24hr in | rain mn in | humidity % | barometer mb |
| 20260503023052 | 61 | 188 | 1.0 | 4.0 | 0.00 | 0.00 | 0.00 | 39 | 1001.2 |
| 20260503021555 | 64 | 165 | 0.0 | 1.0 | 0.00 | 0.00 | 0.00 | 42 | 1001.1 |
| 20260503020053 | 66 | 165 | 0.0 | 2.0 | 0.00 | 0.00 | 0.00 | 34 | 1001.1 |
| 20260503014548 | 67 | 165 | 0.0 | 2.0 | 0.00 | 0.00 | 0.00 | 32 | 1001.1 |
| 20260503013046 | 68 | 123 | 1.0 | 6.0 | 0.00 | 0.00 | 0.00 | 31 | 1001.1 |
| 20260503011553 | 68 | 142 | 1.0 | 6.0 | 0.00 | 0.00 | 0.00 | 32 | 1001.1 |
| 20260503010043 | 68 | 137 | 1.0 | 6.0 | 0.00 | 0.00 | 0.00 | 32 | 1001.3 |
| 20260503004540 | 67 | 300 | 3.0 | 7.0 | 0.00 | 0.00 | 0.00 | 33 | 1001.4 |
| 20260503003039 | 66 | 274 | 2.0 | 4.0 | 0.00 | 0.00 | 0.00 | 33 | 1001.5 |
| 20260503001537 | 65 | 336 | 4.0 | 6.0 | 0.00 | 0.00 | 0.00 | 33 | 1001.6 |
| 20260503000055 | 66 | 34 | 2.0 | 6.0 | 0.00 | 0.00 | 0.00 | 33 | 1001.7 |
| 20260502234536 | 66 | 68 | 1.0 | 6.0 | 0.00 | 0.00 | 0.00 | 33 | 1001.7 |
| 20260502233035 | 68 | 192 | 1.0 | 7.0 | 0.00 | 0.00 | 0.00 | 31 | 1001.8 |
| 20260502231536 | 67 | 168 | 2.0 | 5.0 | 0.00 | 0.00 | 0.00 | 35 | 1002.0 |
| 20260502230033 | 67 | 312 | 2.0 | 6.0 | 0.00 | 0.00 | 0.00 | 33 | 1002.3 |
| 20260502224532 | 67 | 117 | 4.0 | 9.0 | 0.00 | 0.00 | 0.00 | 32 | 1002.5 |
| 20260502223031 | 68 | 260 | 2.0 | 12.0 | 0.00 | 0.00 | 0.00 | 33 | 1002.6 |
| 20260502221528 | 67 | 303 | 3.0 | 12.0 | 0.00 | 0.00 | 0.00 | 35 | 1002.9 |
| 20260502220027 | 66 | 321 | 4.0 | 10.0 | 0.00 | 0.00 | 0.00 | 34 | 1003.1 |
| 20260502214524 | 65 | 284 | 3.0 | 9.0 | 0.00 | 0.00 | 0.00 | 37 | 1003.3 |
| 20260502213023 | 65 | 10 | 4.0 | 6.0 | 0.00 | 0.00 | 0.00 | 37 | 1003.7 |
| 20260502211531 | 64 | 108 | 0.0 | 9.0 | 0.00 | 0.00 | 0.00 | 38 | 1003.7 |
| 20260502210020 | 64 | 89 | 1.0 | 8.0 | 0.00 | 0.00 | 0.00 | 38 | 1003.9 |
| 20260502204521 | 65 | 41 | 5.0 | 13.0 | 0.00 | 0.00 | 0.00 | 37 | 1003.9 |
| 20260502203016 | 64 | 5 | 6.0 | 13.0 | 0.00 | 0.00 | 0.00 | 37 | 1004.0 |
| 20260502201516 | 63 | 26 | 6.0 | 11.0 | 0.00 | 0.00 | 0.00 | 38 | 1004.2 |
| 20260502200015 | 63 | 38 | 7.0 | 15.0 | 0.00 | 0.00 | 0.00 | 40 | 1004.4 |
| 20260502194514 | 62 | 42 | 8.0 | 13.0 | 0.00 | 0.00 | 0.00 | 40 | 1004.6 |
| 20260502193013 | 62 | 53 | 6.0 | 13.0 | 0.00 | 0.00 | 0.00 | 40 | 1004.6 |
| 20260502191512 | 62 | 29 | 3.0 | 10.0 | 0.00 | 0.00 | 0.00 | 39 | 1004.8 |
| 20260502190011 | 63 | 53 | 4.0 | 9.0 | 0.00 | 0.00 | 0.00 | 38 | 1004.8 |
| 20260502184514 | 65 | 302 | 2.0 | 8.0 | 0.00 | 0.00 | 0.00 | 37 | 1004.9 |
| 20260502183009 | 64 | 12 | 4.0 | 10.0 | 0.00 | 0.00 | 0.00 | 38 | 1004.9 |
| 20260502181506 | 63 | 61 | 3.0 | 7.0 | 0.00 | 0.00 | 0.00 | 40 | 1005.1 |
| 20260502163100 | 62 | 313 | 6.0 | 12.0 | 0.00 | 0.00 | 0.00 | 41 | 1005.4 |
| 20260502161606 | 61 | 360 | 6.0 | 12.0 | 0.00 | 0.00 | 0.00 | 41 | 1005.5 |
| 20260502151605 | 58 | 62 | 6.0 | 10.0 | 0.00 | 0.00 | 0.00 | 43 | 1005.7 |
| 20260502123035 | 49 | 37 | 11.0 | 16.0 | 0.00 | 0.00 | 0.00 | 54 | 1004.4 |
| 20260502121536 | 49 | 31 | 13.0 | 19.0 | 0.00 | 0.00 | 0.00 | 53 | 1004.3 |
| 20260502114527 | 50 | 26 | 14.0 | 20.0 | 0.00 | 0.00 | 0.00 | 52 | 1004.1 |
| 20260502113033 | 50 | 57 | 14.0 | 19.0 | 0.00 | 0.00 | 0.00 | 51 | 1003.9 |
| 20260502111522 | 49 | 50 | 14.0 | 18.0 | 0.00 | 0.00 | 0.00 | 51 | 1003.7 |
| 20260502110027 | 48 | 44 | 11.0 | 13.0 | 0.00 | 0.00 | 0.00 | 54 | 1003.6 |
| 20260502104517 | 46 | 337 | 2.0 | 4.0 | 0.00 | 0.00 | 0.00 | 51 | 1003.5 |
| 20260502103016 | 46 | 305 | 2.0 | 4.0 | 0.00 | 0.00 | 0.00 | 52 | 1003.4 |
| 20260502101514 | 46 | 328 | 2.0 | 6.0 | 0.00 | 0.00 | 0.00 | 50 | 1003.2 |
| 20260502091504 | 48 | 321 | 9.0 | 12.0 | 0.00 | 0.00 | 0.00 | 47 | 1002.5 |
| 20260502090116 | 47 | 13 | 2.0 | 3.0 | 0.00 | 0.00 | 0.00 | 46 | 1002.4 |
| 20260502070058 | 51 | 5 | 4.0 | 6.0 | 0.00 | 0.00 | 0.00 | 39 | 1002.0 |
| 20260502064554 | 53 | 325 | 5.0 | 8.0 | 0.00 | 0.00 | 0.00 | 37 | 1001.9 |
| 20260502063043 | 55 | 324 | 5.0 | 10.0 | 0.00 | 0.00 | 0.00 | 35 | 1001.9 |
| 20260502061531 | 57 | 327 | 8.0 | 13.0 | 0.00 | 0.00 | 0.00 | 33 | 1001.9 |
| 20260502060028 | 57 | 338 | 11.0 | 15.0 | 0.00 | 0.00 | 0.00 | 32 | 1001.8 |
| 20260502054534 | 57 | 336 | 12.0 | 16.0 | 0.00 | 0.00 | 0.00 | 32 | 1001.7 |
| 20260502053027 | 57 | 319 | 10.0 | 14.0 | 0.00 | 0.00 | 0.00 | 32 | 1001.8 |
| 20260502051526 | 56 | 304 | 11.0 | 15.0 | 0.00 | 0.00 | 0.00 | 33 | 1001.7 |
| 20260502050038 | 55 | 317 | 8.0 | 13.0 | 0.00 | 0.00 | 0.00 | 33 | 1001.7 |
| 20260502044526 | 54 | 317 | 7.0 | 11.0 | 0.00 | 0.00 | 0.00 | 32 | 1001.8 |
| 20260502043025 | 56 | 321 | 2.0 | 7.0 | 0.00 | 0.00 | 0.00 | 29 | 1001.8 |
| 20260502041527 | 58 | 310 | 5.0 | 11.0 | 0.00 | 0.00 | 0.00 | 28 | 1001.8 |
| 20260502040024 | 58 | 298 | 8.0 | 12.0 | 0.00 | 0.00 | 0.00 | 27 | 1001.8 |
| 20260502034524 | 58 | 310 | 9.0 | 15.0 | 0.00 | 0.00 | 0.00 | 27 | 1001.7 |
| 20260502033022 | 57 | 298 | 3.0 | 5.0 | 0.00 | 0.00 | 0.00 | 26 | 1001.6 |
| 20260502031522 | 58 | 302 | 2.0 | 3.0 | 0.00 | 0.00 | 0.00 | 24 | 1001.4 |
| 20260502030022 | 60 | 295 | 1.0 | 3.0 | 0.00 | 0.00 | 0.00 | 23 | 1001.4 |
| 20260502024521 | 62 | 300 | 1.0 | 4.0 | 0.00 | 0.00 | 0.00 | 21 | 1001.1 |